Location: Jackson Park
(37.2862°N, 79.9123°W)
Time: 21:29:10
(UTC+00:00)

Transit 4A - Pass Details

Date: 12 May 2026
Orbit: 860 x 980 km, 66.8° (Epoch: 9 June)

Event Time Altitude Azimuth Distance (km) Brightness Sun altitude
Rises 22:27:53 0° 336° (NNW) 3,686 11.5 20.4°
Reaches altitude 10° 22:30:32 10° 341° (NNW) 2,737 10.8 19.8°
Maximum altitude 22:36:49 53° 58° (ENE) 1,180 8.4 18.6°
Drops below altitude 10° 22:42:59 10° 135° (SE) 2,697 9.9 17.4°
Sets 22:45:35 0° 140° (SE) 3,627 10.5 16.9°
